Location: Ernsee
(50.8780°N, 12.0389°E)
Time: 21:16:11
(UTC+00:00)

CZ-3 R/B - Pass Details

Date: 20 January 2020
Orbit: 346 x 10270 km, 28.4° (Epoch: 16 February)

Event Time Altitude Azimuth Distance (km) Brightness Sun altitude
Exits shadow 05:50:21 - 259° (WSW) 7,745 5.6 -11.4°
Reaches altitude 10° 05:59:52 10° 239° (WSW) 4,753 4.7 -9.9°
Maximum altitude 06:03:54 12° 219° (SW) 3,636 4.3 -9.3°
Drops below altitude 10° 06:06:47 10° 197° (SSW) 3,133 4.2 -8.9°
Sets 06:10:35 0° 165° (SSE) 3,218 4.8 -8.4°
